Home > Weather > Valencia > Past weeks

Flag for Spain Weather for the Past 2 Weeks in Valencia, Spain

Now
66 °F

Passing clouds.


Feels Like: 66 °F
Forecast: 44 / 69 °F
Wind: 17 mph from Southeast

Location: Valencia / Aeropuerto

Current Time: May 1, 2016 at 4:50:00 PM

Latest Report: May 1, 2016 at 4:00 PM


Visibility: N/A

Pressure: 30.18 "Hg

Humidity: 24%

Dew Point: 28 °F

Location of ValenciaLocation

Historic Weather in Valencia — Graph

°F

Valencia Temperature Yesterday

Maximum temperature yesterday: 68 °F (at 1:00 PM)
Minimum temperature yesterday: 55 °F (at 4:00 AM)
Average temperature yesterday: 61 °F

High & Low Weather Summary for the Past Weeks

 TemperatureHumidityPressure
High82 °F (Apr 16, 3:00 PM)100% (Apr 30, 4:00 AM)30.24 "Hg (Apr 30, 4:00 AM)
Low46 °F (May 1, 7:30 AM)16% (May 1, 2:00 PM)29.74 "Hg (Apr 16, 6:30 PM)
Average63 °F61%30.00 "Hg
* Reported Apr 16 3:00 PM — May 1 3:30 PM, Valencia, Weather by CustomWeather, © 2016

Note: Actual official high and low records may vary slightly from our data, if they occured in-between our weather recording intervals... More about our weather records

Advertising

Valencia Weather History for the Previous 24 Hours

Scroll right to see more
 ConditionsComfort  
Time TempWeatherWind HumidityBarometerVisibility
3:30 PM
Sun, May 1
66 °FPassing clouds.13 mph24%30.18 "HgN/A
3:00 PM68 °FPassing clouds.14 mph24%30.15 "HgN/A
2:30 PM68 °FPassing clouds.17 mph23%30.15 "HgN/A
2:00 PM70 °FPassing clouds.16 mph16%30.15 "HgN/A
1:30 PM68 °FPassing clouds.15 mph20%30.18 "HgN/A
1:00 PM68 °FPassing clouds.18 mph20%30.18 "HgN/A
12:30 PM66 °FPassing clouds.17 mph21%30.21 "HgN/A
12:00 PM64 °FPassing clouds.20 mph22%30.21 "HgN/A
11:30 AM63 °FPassing clouds.15 mph24%30.24 "HgN/A
11:00 AM63 °FPassing clouds.7 mph22%30.24 "HgN/A
10:30 AM59 °FSunny.3 mph27%30.24 "Hg10 mi
10:00 AM59 °FPassing clouds.6 mph25%30.24 "HgN/A
9:00 AM54 °FSunny.2 mph41%30.24 "Hg10 mi
8:30 AM50 °FSunny.2 mph47%30.24 "Hg10 mi
8:00 AM46 °FSunny.3 mph62%30.21 "Hg10 mi
7:30 AM46 °FPassing clouds.6 mph57%30.21 "HgN/A
6:00 AM48 °FClear.3 mph54%30.21 "Hg10 mi
5:30 AM48 °FClear.5 mph54%30.21 "Hg10 mi
5:00 AM50 °FClear.7 mph47%30.21 "Hg10 mi
4:30 AM54 °FClear.8 mph35%30.21 "Hg10 mi
4:00 AM54 °FPassing clouds.9 mph33%30.21 "HgN/A
3:30 AM55 °FClear.10 mph31%30.21 "Hg10 mi
3:00 AM55 °FClear.17 mph31%30.21 "Hg10 mi
2:30 AM57 °FClear.17 mph27%30.21 "Hg10 mi
2:00 AM57 °FClear.13 mph31%30.21 "Hg10 mi
1:30 AM57 °FClear.12 mph39%30.21 "Hg10 mi
1:00 AM57 °FClear.6 mph36%30.21 "Hg10 mi
12:30 AM61 °FPassing clouds.8 mph31%30.21 "HgN/A
12:00 AM61 °FPassing clouds.6 mph39%30.21 "HgN/A
11:30 PM
Sat, Apr 30
61 °FPassing clouds.5 mph52%30.21 "HgN/A
11:00 PM63 °FPassing clouds.6 mph52%30.18 "HgN/A
10:30 PM63 °FPassing clouds.1 mph52%30.18 "HgN/A
10:00 PM63 °FPassing clouds.No wind49%30.15 "HgN/A
9:30 PM63 °FPassing clouds.3 mph49%30.12 "HgN/A
9:00 PM64 °FPassing clouds.3 mph46%30.12 "HgN/A
8:30 PM64 °FPassing clouds.3 mph46%30.09 "HgN/A
8:00 PM66 °FPassing clouds.5 mph46%30.09 "HgN/A
7:30 PM66 °FPassing clouds.6 mph46%30.09 "HgN/A
7:00 PM66 °FPassing clouds.7 mph43%30.09 "HgN/A
6:30 PM66 °FPassing clouds.8 mph43%30.09 "HgN/A
6:00 PM68 °FPassing clouds.9 mph40%30.09 "HgN/A
5:30 PM66 °FPassing clouds.10 mph46%30.09 "HgN/A
5:00 PM66 °FPassing clouds.10 mph43%30.07 "HgN/A
4:30 PM66 °FPassing clouds.9 mph46%30.07 "HgN/A
4:00 PM66 °FPassing clouds.10 mph49%30.09 "HgN/A
Weather by CustomWeather, © 2016

See weather overviewHow to use our weather pages